• In Deutschland
  • Länderverzeichnis
  • Für 7 Tage
  • Wassertemperatur
  • Satellitenkarten
  • Wetterkarte
  • Widgets
  • user-avatar
    Anmelden

    Stündliche Wetter Bad Cannstatt

    Heute, 17 Oktober, Dienstag

    Zeit Temperatur Niederschläge Wind Luftdruck Luftfeuchtigkeit
    00:00 +15°C° 0 mm 2 m/S 747 mmHg 75%
    01:00 +15°C° 0 mm 2 m/S 747 mmHg 71%
    02:00 +15°C° 0 mm 2 m/S 747 mmHg 71%
    03:00 +14°C° 0 mm 1 m/S 747 mmHg 70%
    04:00 +14°C° 0 mm 1 m/S 746 mmHg 70%
    05:00 +14°C° 0 mm 1 m/S 746 mmHg 70%
    06:00 +13°C° 0 mm 1 m/S 746 mmHg 69%
    07:00 +13°C° 0 mm 1 m/S 746 mmHg 69%
    08:00 +15°C° 0 mm 1 m/S 746 mmHg 64%
    09:00 +19°C° 0 mm 1 m/S 746 mmHg 59%
    10:00 +21°C° 0 mm 1 m/S 746 mmHg 53%
    11:00 +22°C° 0 mm 1 m/S 746 mmHg 50%
    12:00 +22°C° 0 mm 0 m/S 746 mmHg 47%
    13:00 +23°C° 0 mm 0 m/S 745 mmHg 44%
    14:00 +22°C° 0 mm 0 m/S 745 mmHg 48%
    15:00 +22°C° 0 mm 0 m/S 744 mmHg 52%
    16:00 +21°C° 0 mm 0 m/S 744 mmHg 56%
    17:00 +19°C° 0 mm 0 m/S 743 mmHg 61%
    18:00 +17°C° 0 mm 0 m/S 743 mmHg 67%
    19:00 +15°C° 0 mm 0 m/S 743 mmHg 72%
    20:00 +15°C° 0 mm 1 m/S 743 mmHg 74%
    21:00 +15°C° 0 mm 1 m/S 743 mmHg 75%
    22:00 +15°C° 0 mm 1 m/S 743 mmHg 77%
    23:00 +14°C° 0 mm 1 m/S 743 mmHg 77%

    Morgen, 18 Oktober, Mittwoch

    Zeit Temperatur Niederschläge Wind Luftdruck Luftfeuchtigkeit
    00:00 +14°C° 0 mm 1 m/S 743 mmHg 77%
    01:00 +14°C° 0 mm 1 m/S 742 mmHg 77%
    02:00 +14°C° 0 mm 1 m/S 742 mmHg 76%
    03:00 +13°C° 0 mm 1 m/S 742 mmHg 76%
    04:00 +13°C° 0 mm 1 m/S 742 mmHg 75%
    05:00 +13°C° 0 mm 1 m/S 742 mmHg 74%
    06:00 +13°C° 0 mm 1 m/S 741 mmHg 74%
    07:00 +12°C° 0 mm 1 m/S 741 mmHg 73%
    08:00 +15°C° 0 mm 1 m/S 741 mmHg 67%
    09:00 +18°C° 0 mm 1 m/S 741 mmHg 61%
    10:00 +20°C° 0 mm 1 m/S 741 mmHg 55%
    11:00 +21°C° 0 mm 1 m/S 741 mmHg 52%
    12:00 +22°C° 0 mm 1 m/S 741 mmHg 48%
    13:00 +23°C° 0 mm 1 m/S 741 mmHg 45%
    14:00 +23°C° 0 mm 1 m/S 740 mmHg 49%
    15:00 +22°C° 0 mm 1 m/S 740 mmHg 53%
    16:00 +22°C° 0 mm 1 m/S 740 mmHg 57%
    17:00 +20°C° 0 mm 1 m/S 740 mmHg 62%
    18:00 +18°C° 0 mm 1 m/S 740 mmHg 67%
    19:00 +15°C° 0 mm 1 m/S 740 mmHg 72%
    20:00 +14°C° 0 mm 1 m/S 740 mmHg 73%
    21:00 +14°C° 0 mm 1 m/S 740 mmHg 75%
    22:00 +14°C° 0 mm 1 m/S 740 mmHg 76%
    23:00 +13°C° 0 mm 1 m/S 740 mmHg 77%

    übermorgen, 19 Oktober, Donnerstag

    Zeit Temperatur Niederschläge Wind Luftdruck Luftfeuchtigkeit
    00:00 +13°C° 0 mm 1 m/S 740 mmHg 78%
    01:00 +13°C° 0 mm 1 m/S 740 mmHg 78%
    02:00 +13°C° 0 mm 1 m/S 740 mmHg 79%
    03:00 +12°C° 0 mm 1 m/S 739 mmHg 79%
    04:00 +12°C° 0 mm 1 m/S 739 mmHg 79%
    05:00 +12°C° 0 mm 1 m/S 739 mmHg 79%
    06:00 +12°C° 0 mm 1 m/S 739 mmHg 79%
    07:00 +12°C° 0 mm 1 m/S 739 mmHg 79%
    08:00 +14°C° 0 mm 1 m/S 739 mmHg 73%
    09:00 +16°C° 0 mm 1 m/S 739 mmHg 67%
    10:00 +19°C° 0 mm 1 m/S 739 mmHg 61%
    11:00 +20°C° 0 mm 1 m/S 739 mmHg 57%
    12:00 +22°C° 0 mm 1 m/S 739 mmHg 53%
    13:00 +23°C° 0 mm 1 m/S 739 mmHg 49%
    14:00 +23°C° 0 mm 1 m/S 739 mmHg 52%
    15:00 +22°C° 0 mm 1 m/S 739 mmHg 56%
    16:00 +20°C° 0 mm 0 m/S 739 mmHg 60%
    17:00 +20°C° 0 mm 1 m/S 739 mmHg 63%
    18:00 +18°C° 0 mm 1 m/S 739 mmHg 67%
    19:00 +16°C° 0 mm 1 m/S 739 mmHg 70%
    20:00 +15°C° 0 mm 1 m/S 739 mmHg 71%
    21:00 +15°C° 0 mm 1 m/S 739 mmHg 72%
    22:00 +15°C° 0 mm 2 m/S 740 mmHg 73%
    23:00 +14°C° 0 mm 2 m/S 739 mmHg 72%

    20 Oktober, Freitag

    Zeit Temperatur Niederschläge Wind Luftdruck Luftfeuchtigkeit
    00:00 +14°C° 0 mm 2 m/S 739 mmHg 71%
    01:00 +14°C° 0 mm 2 m/S 739 mmHg 70%
    02:00 +14°C° 0 mm 2 m/S 739 mmHg 69%
    03:00 +14°C° 0 mm 2 m/S 739 mmHg 68%
    04:00 +14°C° 0 mm 2 m/S 739 mmHg 67%
    05:00 +14°C° 0,1 mm 2 m/S 739 mmHg 68%
    06:00 +14°C° 0,1 mm 2 m/S 740 mmHg 69%
    07:00 +14°C° 0,1 mm 2 m/S 740 mmHg 70%
    08:00 +15°C° 0,1 mm 2 m/S 740 mmHg 70%
    09:00 +16°C° 0,1 mm 3 m/S 740 mmHg 70%
    10:00 +17°C° 0,1 mm 3 m/S 741 mmHg 70%
    11:00 +18°C° 0 mm 4 m/S 741 mmHg 66%
    12:00 +20°C° 0 mm 4 m/S 740 mmHg 62%
    13:00 +21°C° 0 mm 5 m/S 740 mmHg 58%
    14:00 +21°C° 0 mm 4 m/S 740 mmHg 60%
    15:00 +21°C° 0 mm 3 m/S 740 mmHg 62%
    16:00 +20°C° 0 mm 2 m/S 740 mmHg 65%
    17:00 +19°C° 0 mm 2 m/S 740 mmHg 70%
    18:00 +17°C° 0 mm 2 m/S 741 mmHg 76%
    19:00 +15°C° 0 mm 1 m/S 741 mmHg 81%
    20:00 +15°C° 0 mm 2 m/S 741 mmHg 82%
    21:00 +15°C° 0 mm 2 m/S 741 mmHg 83%
    22:00 +14°C° 0 mm 2 m/S 741 mmHg 84%
    23:00 +14°C° 0 mm 2 m/S 741 mmHg 83%

    21 Oktober, Samstag

    Zeit Temperatur Niederschläge Wind Luftdruck Luftfeuchtigkeit
    00:00 +14°C° 0 mm 2 m/S 741 mmHg 82%
    01:00 +14°C° 0 mm 2 m/S 741 mmHg 81%
    02:00 +14°C° 0 mm 2 m/S 741 mmHg 79%
    03:00 +14°C° 0 mm 2 m/S 741 mmHg 78%
    04:00 +13°C° 0 mm 3 m/S 741 mmHg 76%
    05:00 +14°C° 0 mm 2 m/S 741 mmHg 76%
    06:00 +14°C° 0 mm 2 m/S 741 mmHg 76%
    07:00 +14°C° 0 mm 2 m/S 741 mmHg 76%
    08:00 +15°C° 0,1 mm 2 m/S 741 mmHg 74%
    09:00 +16°C° 0,1 mm 3 m/S 741 mmHg 71%
    10:00 +18°C° 0,1 mm 3 m/S 741 mmHg 69%
    11:00 +18°C° 0,1 mm 3 m/S 740 mmHg 68%
    12:00 +19°C° 0,1 mm 4 m/S 740 mmHg 67%
    13:00 +20°C° 0,1 mm 5 m/S 740 mmHg 67%
    14:00 +18°C° 1,1 mm 4 m/S 740 mmHg 75%
    15:00 +17°C° 1,1 mm 4 m/S 740 mmHg 83%
    16:00 +16°C° 1,1 mm 3 m/S 740 mmHg 91%
    17:00 +16°C° 0,6 mm 3 m/S 740 mmHg 92%
    18:00 +15°C° 0,6 mm 2 m/S 740 mmHg 93%
    19:00 +15°C° 0,6 mm 1 m/S 740 mmHg 95%
    20:00 +15°C° 2,2 mm 1 m/S 740 mmHg 95%
    21:00 +15°C° 2,2 mm 2 m/S 740 mmHg 95%
    22:00 +15°C° 2,2 mm 2 m/S 741 mmHg 95%
    23:00 +14°C° 1 mm 2 m/S 740 mmHg 95%

    22 Oktober, Sonntag

    Zeit Temperatur Niederschläge Wind Luftdruck Luftfeuchtigkeit
    00:00 +14°C° 1 mm 2 m/S 740 mmHg 94%
    01:00 +14°C° 1 mm 2 m/S 740 mmHg 94%
    02:00 +12°C° 1,1 mm 3 m/S 740 mmHg 93%
    03:00 +12°C° 1,1 mm 4 m/S 741 mmHg 92%
    04:00 +11°C° 1,1 mm 4 m/S 741 mmHg 91%
    05:00 +11°C° 0,4 mm 4 m/S 741 mmHg 91%
    06:00 +10°C° 0,4 mm 4 m/S 741 mmHg 90%
    07:00 +10°C° 0,4 mm 4 m/S 741 mmHg 89%
    08:00 +10°C° 0 mm 4 m/S 741 mmHg 86%
    09:00 +10°C° 0 mm 5 m/S 742 mmHg 83%
    10:00 +10°C° 0 mm 5 m/S 742 mmHg 80%
    11:00 +10°C° 0,1 mm 5 m/S 742 mmHg 75%
    12:00 +11°C° 0,1 mm 6 m/S 742 mmHg 71%
    13:00 +11°C° 0,1 mm 6 m/S 742 mmHg 66%
    14:00 +12°C° 0,2 mm 5 m/S 742 mmHg 67%
    15:00 +12°C° 0,2 mm 5 m/S 742 mmHg 68%
    16:00 +10°C° 0,2 mm 5 m/S 742 mmHg 69%
    17:00 +10°C° 0 mm 4 m/S 743 mmHg 73%
    18:00 +8°C° 0 mm 4 m/S 743 mmHg 76%
    19:00 +7°C° 0 mm 4 m/S 743 mmHg 79%
    20:00 +7°C° 0,1 mm 4 m/S 744 mmHg 80%
    21:00 +7°C° 0,1 mm 4 m/S 744 mmHg 81%
    22:00 +7°C° 0,1 mm 5 m/S 744 mmHg 82%
    23:00 +7°C° 0,3 mm 5 m/S 744 mmHg 83%
    Mehr zeigen